Location: Nitra
(48.3167°N, 18.0833°E)
Time: 17:45:43
(UTC+01:00)

STARLINK-1695 - Pass Details

Date: 24 September 2020
Orbit: 378 x 381 km, 53.0° (Epoch: 30 October)

Event Time Altitude Azimuth Distance (km) Brightness Sun altitude
Exits shadow 03:37:47 14° 56° (NE) 1,191 6.2 -28.8°
Drops below altitude 10° 03:38:20 10° 60° (ENE) 1,398 6.6 -28.7°
Enters shadow 04:34:51 -68° 267° (W) 12,233 10.4 -20.6°
Maximum altitude 05:11:38 37° 10° (N) 616 4.1 -14.9°
Sets 05:16:43 0° 89° (E) 2,247 8.4 -14.1°
